[[{"header":{"parameterUnit":"m.s-1","parameterCategory":1,"la1":30.2992,"la2":30.254,"lo1":-89.0895,"lo2":-89.0443,"dy":0.0025,"dx":0.0025,"nx":19,"ny":19,"refTime":"2026-05-14T03:00:00:Z","depth":0,"parameterNumber":2,"parameterNumberName":"U-component_of_WINDS"},"data":[0,0,0,1.517,1.5171,1.5248,1.5248,1.5342,1.5343,0,0,0,0,0,0,0,0,0,0,0,1.5143,1.5144,1.517,1.5171,1.5248,1.5248,1.5342,1.5343,0,0,0,0,0,0,0,0,0,0,0,1.5143,1.5144,1.5144,1.5172,1.5248,1.5248,1.5341,1.5285,0,0,0,0,0,0,0,0,0,0,1.5212,1.5184,1.5143,1.5144,1.5172,1.5248,1.5248,1.5283,1.5289,1.5305,0,1.5317,0,1.5331,1.5349,1.5349,0,0,0,1.5174,1.5178,1.5202,1.5144,1.5173,1.5248,1.5214,1.5286,1.5293,1.5313,1.5319,1.5322,1.5333,1.5349,1.535,1.543,1.543,0,0,1.517,1.5155,1.5198,1.5207,1.5194,1.5212,1.5217,1.5291,1.5296,1.5319,1.5325,1.5334,1.535,1.535,1.543,1.543,0,0,0,1.5156,1.5152,1.5174,1.5203,1.5217,1.5214,1.5219,1.5293,1.5301,1.5326,1.5336,1.535,1.5351,1.543,1.543,1.5426,0,0,0,1.5154,1.5144,1.5172,1.5164,1.5215,1.5255,1.522,1.5296,1.5305,1.5335,1.535,1.5352,1.5429,1.543,1.5426,1.5427,0,0,0,1.514,1.5142,1.5152,1.5163,1.5195,1.5255,1.5268,1.5298,1.5311,1.5349,1.5352,1.5429,1.543,1.5426,1.5426,1.5444,0,0,0,1.512,1.5148,1.5152,1.5186,1.5195,1.5252,1.5267,1.5311,1.5343,1.5351,1.5429,1.543,1.5425,1.5426,1.5443,1.5455,1.5458,0,0,1.5146,1.515,1.5172,1.5178,1.523,1.5241,1.5294,1.5338,1.5356,1.5405,1.5407,1.5426,1.5426,1.5443,1.5485,1.5488,0,0,0,1.5175,1.5191,1.5208,1.5238,1.5272,1.5302,1.5339,1.5356,1.5398,1.5378,1.5438,1.5439,1.5449,1.5455,1.5458,1.5468,1.5432,1.5432,1.5432,1.519,1.5211,1.5249,1.528,1.5309,1.5348,1.5374,1.5403,1.5416,1.543,1.5444,1.5467,1.5474,1.5475,1.5486,1.5453,1.5453,1.5453,1.5453,1.5229,1.5254,1.5272,1.5315,1.5338,1.5375,1.5414,1.5423,1.5461,1.5458,1.5468,1.5462,1.5478,1.5488,1.5453,1.5453,1.5453,1.5453,1.5453,1.524,1.5256,1.5276,1.5322,1.5356,1.5387,1.5423,1.5443,1.5463,1.5473,1.549,1.5491,1.5493,1.548,1.548,1.548,1.548,1.548,1.5481,1.5243,1.5266,1.5293,1.5333,1.5356,1.5388,1.5429,1.5452,1.5483,1.5495,1.5495,1.5507,1.5475,1.5466,1.5482,1.5482,1.5481,1.5481,1.5481,1.5274,1.5271,1.5312,1.5335,1.5384,1.5416,1.5443,1.5488,1.5511,1.5528,1.5539,1.5512,1.5517,1.5516,1.5508,1.5534,1.5534,1.5534,1.5534,1.5282,1.5288,1.5335,1.537,1.5407,1.5435,1.5483,1.5516,1.555,1.5566,1.5566,1.5558,1.5556,1.5563,1.556,1.5553,1.559,1.559,1.559,1.5302,1.5312,1.5348,1.5381,1.5421,1.5456,1.5502,1.5543,1.5581,1.5592,1.5579,1.5576,1.5565,1.556,1.5569,1.5564,1.5553,0,0]},{"header":{"parameterUnit":"m.s-1","parameterCategory":1,"la1":30.2992,"la2":30.254,"lo1":-89.0895,"lo2":-89.0443,"dy":0.0025,"dx":0.0025,"nx":19,"ny":19,"refTime":"2026-05-14T03:00:00:Z","depth":0,"parameterNumber":3,"parameterNumberName":"V-component_of_WINDS"},"data":[0,0,0,-1.8551,-1.8553,-1.8683,-1.8684,-1.8841,-1.8842,0,0,0,0,0,0,0,0,0,0,0,-1.8506,-1.8507,-1.855,-1.8554,-1.8683,-1.8684,-1.8841,-1.8842,0,0,0,0,0,0,0,0,0,0,0,-1.8506,-1.8507,-1.8508,-1.8554,-1.8683,-1.8684,-1.8841,-1.8746,0,0,0,0,0,0,0,0,0,0,-1.8621,-1.8574,-1.8507,-1.8508,-1.8555,-1.8683,-1.8684,-1.8741,-1.8752,-1.8778,0,-1.88,0,-1.8824,-1.8852,-1.8853,0,0,0,-1.8558,-1.8566,-1.8606,-1.8508,-1.8556,-1.8683,-1.8626,-1.8747,-1.8759,-1.8792,-1.8802,-1.8808,-1.8826,-1.8853,-1.8854,-1.8992,-1.8992,0,0,-1.8551,-1.8526,-1.8598,-1.8613,-1.8592,-1.8622,-1.863,-1.8754,-1.8764,-1.8803,-1.8812,-1.8829,-1.8854,-1.8855,-1.8992,-1.8992,0,0,0,-1.8527,-1.8521,-1.8559,-1.8607,-1.8631,-1.8625,-1.8635,-1.8759,-1.8773,-1.8814,-1.8831,-1.8855,-1.8857,-1.8991,-1.8992,-1.8989,0,0,0,-1.8523,-1.8507,-1.8555,-1.8542,-1.8628,-1.8696,-1.8636,-1.8764,-1.8779,-1.883,-1.8855,-1.8858,-1.8991,-1.8992,-1.8988,-1.8991,0,0,0,-1.85,-1.8505,-1.8522,-1.854,-1.8595,-1.8695,-1.8716,-1.8768,-1.8789,-1.8853,-1.8859,-1.899,-1.8991,-1.8987,-1.899,-1.9021,0,0,0,-1.8468,-1.8517,-1.8521,-1.8583,-1.8594,-1.8692,-1.8716,-1.879,-1.8845,-1.8856,-1.8991,-1.8992,-1.8987,-1.8989,-1.9019,-1.9041,-1.9048,0,0,-1.8516,-1.8522,-1.856,-1.8568,-1.8659,-1.8674,-1.8766,-1.8839,-1.8867,-1.8949,-1.8953,-1.8988,-1.899,-1.902,-1.9096,-1.9101,0,0,0,-1.8567,-1.8594,-1.8624,-1.8675,-1.8732,-1.8781,-1.8843,-1.8871,-1.8941,-1.8904,-1.9009,-1.9011,-1.9029,-1.9041,-1.9045,-1.9063,-1.8996,-1.8996,-1.8996,-1.86,-1.8634,-1.87,-1.875,-1.8799,-1.8863,-1.8907,-1.8955,-1.8975,-1.8999,-1.9023,-1.9065,-1.9077,-1.9081,-1.9098,-1.9038,-1.9038,-1.9038,-1.9038,-1.8673,-1.8717,-1.8744,-1.8817,-1.8854,-1.8916,-1.898,-1.8993,-1.9056,-1.9049,-1.9067,-1.9055,-1.9085,-1.9103,-1.9038,-1.9038,-1.9038,-1.9038,-1.9038,-1.8698,-1.8724,-1.8757,-1.8835,-1.8891,-1.8941,-1.9001,-1.9033,-1.9063,-1.9081,-1.911,-1.911,-1.9114,-1.9093,-1.9093,-1.9093,-1.9093,-1.9093,-1.9094,-1.8709,-1.8747,-1.8793,-1.8859,-1.8896,-1.8949,-1.9016,-1.9053,-1.9103,-1.9122,-1.9122,-1.914,-1.9082,-1.9066,-1.9096,-1.9096,-1.9095,-1.9095,-1.9095,-1.8769,-1.8761,-1.8832,-1.887,-1.8951,-1.9005,-1.9045,-1.912,-1.9156,-1.9185,-1.92,-1.9152,-1.916,-1.9157,-1.9144,-1.9192,-1.9192,-1.9192,-1.9192,-1.8789,-1.8797,-1.8877,-1.8935,-1.8996,-1.904,-1.9121,-1.9173,-1.9226,-1.9251,-1.9249,-1.9235,-1.9231,-1.9242,-1.9237,-1.9225,-1.9293,-1.9293,-1.9293,-1.8828,-1.8843,-1.8905,-1.8957,-1.9023,-1.9079,-1.9156,-1.9222,-1.9281,-1.9298,-1.9271,-1.9267,-1.9245,-1.9236,-1.925,-1.9241,-1.9221,0,0]}]]